Wind_Speed
15 13 12 11 11 10 10 10 9 8 8 8 8 8 8 9 9 9 10 10 10 9 9 9 8 6 4 3 3 3 2 3 2 2 1 2 1 1 1 0 2 2 3 2 2 3 3 1 1 0 1 3 4 5 6 5 4 3 3 4 2 4 4 6 8 7 4 2 6 10 11 7 4 7 8 5 4 6 9 11 10 11 14 12 10 9 10 16
15 14 12 12 11 11 10 10 9 8 8 8 8 8 9 9 9 10 10 10 9 9 9 9 7 6 4 3 3 3 3 3 3 3 2 2 2 3 3 2 2 3 3 2 1 1 1 1 1 1 2 3 5 4 4 4 5 3 3 4 3 6 4 5 9 9 3 1 7 11 9 8 6 9 9 3 3 5 6 9 11 12 14 14 13 12 12 15
15 14 13 12 12 11 10 10 9 9 8 8 9 9 9 9 10 10 10 10 9 9 10 9 7 6 4 3 3 2 3 3 3 3 3 3 4 5 5 4 4 5 4 4 2 2 1 2 1 2 4 5 5 5 4 5 3 2 4 3 4 7 3 4 7 9 6 0 7 11 8 8 6 9 9 4 3 3 6 10 12 14 16 15 14 13 13 15
15 14 13 12 12 11 10 10 9 9 9 8 9 9 9 9 10 10 10 10 9 9 10 8 7 6 5 4 3 2 2 3 3 4 4 5 6 8 7 4 3 5 5 5 3 3 2 2 2 3 5 5 5 4 4 6 2 1 4 3 4 5 1 3 5 7 8 4 6 11 7 5 6 8 9 6 3 4 11 17 17 17 15 14 15 15 14 16
15 14 13 12 11 11 10 9 9 8 8 8 8 8 9 9 9 10 10 10 10 10 9 8 7 6 5 4 3 3 1 2 3 6 4 6 8 9 8 5 1 3 5 5 3 2 3 3 3 3 5 3 5 4 3 6 4 3 2 2 4 6 1 2 3 4 7 6 7 10 7 5 7 8 10 10 6 7 12 14 16 17 14 12 14 15 16 17
15 14 13 12 11 10 10 9 8 8 8 8 8 8 8 8 9 9 9 9 10 9 9 8 7 6 5 5 4 4 2 1 4 7 5 7 8 9 8 6 4 3 5 4 2 2 2 2 3 3 4 3 3 3 3 4 2 2 1 1 5 5 1 2 3 3 6 8 10 10 7 7 8 6 10 14 15 15 11 9 9 12 14 14 14 15 17 17
14 13 12 12 11 10 9 9 8 8 8 7 7 7 7 7 8 8 8 9 9 9 8 8 7 6 5 5 4 4 5 2 5 8 6 8 7 7 7 5 5 4 5 3 2 1 1 1 2 5 5 3 1 2 4 5 3 4 1 1 5 5 2 3 4 5 7 7 9 8 7 7 8 6 6 14 22 21 17 13 11 11 13 15 16 17 18 18
14 13 12 11 11 10 10 9 8 8 7 7 7 7 7 7 8 7 8 8 9 9 8 8 7 6 5 5 4 4 6 4 6 7 6 7 6 6 6 4 4 4 4 3 2 1 2 1 4 6 4 2 2 1 3 4 4 4 2 2 3 3 3 5 5 6 6 5 6 7 6 6 8 7 6 16 21 19 20 20 18 16 14 16 18 18 18 19
13 13 12 11 11 10 10 10 9 9 8 8 7 7 7 7 8 7 7 8 8 8 8 7 7 7 6 6 4 3 5 6 7 8 6 6 6 5 5 3 3 4 3 1 1 1 2 2 4 4 3 4 4 2 3 2 2 2 3 3 2 0 1 5 6 6 6 5 5 6 6 5 6 5 9 21 22 19 20 19 19 19 17 17 17 19 19 19
13 13 12 12 11 10 10 9 8 8 8 8 7 7 7 8 8 7 7 7 8 8 8 7 7 6 6 6 3 2 5 6 8 9 7 6 6 5 4 3 3 2 2 2 2 1 3 3 4 5 5 5 5 3 4 3 1 2 4 2 1 1 2 4 6 6 6 6 6 7 5 4 4 2 8 15 16 18 19 19 19 18 18 18 17 18 19 20
12 13 13 13 12 11 10 9 8 7 7 7 7 7 7 8 7 7 7 7 7 7 8 8 7 7 7 6 5 4 3 5 8 10 9 7 7 6 5 3 2 1 1 2 3 3 4 4 5 6 3 4 4 3 4 4 4 3 2 0 2 4 4 5 6 7 6 5 7 8 4 4 1 3 11 14 11 14 16 18 19 18 18 17 18 19 20 21
12 12 12 12 12 12 11 9 8 8 7 7 7 7 7 8 8 7 7 7 8 8 8 8 8 8 7 8 10 9 4 3 7 11 10 9 8 7 5 4 2 1 1 1 3 3 4 4 4 3 3 6 4 3 4 4 3 4 4 1 5 8 5 4 3 5 6 3 5 5 2 4 4 9 15 13 12 13 15 17 18 18 19 18 19 20 21 21
12 12 11 11 12 12 11 11 10 8 8 8 7 7 7 8 8 8 8 8 9 9 9 9 9 9 8 8 10 10 8 6 7 10 12 10 9 8 6 3 2 2 2 2 2 3 3 3 2 3 6 6 3 3 4 3 3 2 4 2 4 8 5 3 1 3 6 3 4 6 3 6 8 16 17 11 12 14 15 19 19 19 20 20 20 21 23 22
13 12 12 11 11 11 11 11 10 9 9 8 7 7 6 7 7 8 8 9 9 9 9 9 8 8 8 8 8 9 10 9 9 11 12 12 11 10 7 4 3 3 3 2 2 2 2 2 2 3 5 5 5 7 4 4 4 1 2 2 2 2 4 5 1 5 5 4 7 6 3 7 8 13 12 12 14 14 18 20 19 21 20 21 22 23 25 24
14 13 13 12 12 12 11 11 10 10 10 9 8 7 6 6 6 6 7 8 8 9 9 8 7 7 6 8 9 9 11 11 12 12 13 13 12 11 9 5 5 5 5 4 3 2 0 1 1 3 5 6 7 6 3 4 4 3 1 3 3 1 5 8 2 7 4 2 6 5 3 7 9 11 8 10 14 15 19 20 19 21 21 23 24 25 26 26
13 14 14 14 13 13 12 11 10 10 10 9 8 7 6 6 5 5 5 6 7 8 7 7 6 5 4 6 8 9 11 13 14 15 15 14 13 12 9 6 6 6 5 5 4 3 2 1 2 4 4 5 5 4 4 3 4 4 1 3 2 1 3 6 2 4 2 2 4 3 3 4 5 5 3 6 13 16 18 20 20 22 23 24 25 26 27 28
11 13 14 14 14 14 14 13 11 11 10 9 8 8 6 6 5 5 5 5 5 6 6 5 5 5 5 6 7 9 12 14 15 16 16 15 14 13 10 7 7 6 6 5 4 3 2 1 4 3 2 3 3 4 4 2 4 4 2 1 4 2 2 3 4 2 1 2 2 3 3 8 8 6 5 4 9 14 18 21 21 22 24 25 26 27 28 30
8 10 12 13 15 15 15 14 13 12 11 10 9 8 7 6 5 5 5 5 5 4 4 6 5 1 6 10 9 8 9 12 14 15 16 16 15 13 10 7 6 6 5 4 3 3 1 2 3 1 3 3 2 5 3 4 4 3 2 1 3 2 2 4 4 2 2 2 2 3 4 11 13 13 16 14 11 15 19 22 23 24 26 26 27 29 30 32
8 9 10 12 14 15 16 16 15 14 13 12 11 9 8 6 5 5 6 6 7 4 2 8 10 4 2 7 10 10 8 8 11 14 16 17 15 13 10 7 6 6 5 3 2 2 2 2 4 1 1 2 4 7 7 8 6 6 6 4 4 3 3 5 5 5 3 2 4 7 7 11 12 13 17 17 14 17 21 24 26 28 29 29 30 32 33 34
9 9 9 10 12 14 16 17 17 16 15 14 13 10 7 4 2 4 8 11 13 12 6 7 12 9 3 2 6 9 9 8 10 14 16 17 16 13 10 8 6 4 4 3 2 1 3 2 2 5 7 8 9 9 6 5 6 6 5 3 3 4 5 5 5 6 2 3 6 8 8 11 12 12 15 15 10 14 21 24 28 32 33 33 34 35 37 37
8 10 10 10 11 12 14 17 18 19 18 16 14 11 7 6 3 1 5 10 13 17 15 11 11 13 10 7 6 6 8 9 10 14 15 16 15 11 9 8 5 2 1 3 4 2 3 3 7 10 9 8 7 6 5 5 5 4 5 3 3 3 6 6 4 4 1 3 5 5 5 11 13 12 16 14 7 13 22 24 29 35 36 36 37 39 40 38
9 10 10 11 12 11 13 15 18 20 19 17 16 12 9 9 8 5 3 5 10 14 17 19 17 16 16 14 12 9 8 7 9 14 16 17 16 11 9 8 5 3 1 4 5 2 2 4 12 10 5 5 3 5 6 5 5 3 3 2 3 3 5 6 3 4 1 4 4 4 4 10 12 12 15 17 15 20 28 30 33 36 34 36 39 40 40 39
11 10 10 11 12 12 13 13 16 19 19 18 17 15 12 10 9 7 5 5 9 13 15 19 21 22 22 19 17 14 13 10 10 15 18 19 18 13 11 9 4 4 3 4 6 3 3 6 11 7 9 7 4 4 7 5 2 2 3 3 3 3 2 3 4 4 0 2 2 4 6 7 10 11 12 20 24 24 30 35 37 38 35 38 41 39 39 39
13 11 11 12 13 14 14 14 15 16 17 19 19 17 15 12 8 6 5 3 6 10 14 17 18 23 25 21 18 18 17 13 12 16 20 22 18 12 10 9 6 4 4 7 8 6 6 6 3 5 8 7 5 4 7 5 3 4 5 6 5 4 6 6 4 4 2 2 3 3 6 6 7 10 9 11 12 16 27 31 34 39 40 41 42 40 40 40
15 13 12 12 14 15 15 16 15 13 15 18 18 17 16 14 8 4 2 2 4 6 10 14 16 20 24 22 20 17 13 14 15 16 21 25 23 12 6 8 6 4 6 6 5 5 9 5 3 6 4 6 7 4 6 7 3 4 5 10 10 8 7 5 3 5 4 4 3 3 4 6 4 7 9 5 4 9 18 20 25 35 36 36 38 40 41 40
17 17 16 15 16 16 16 16 13 12 12 14 14 15 16 13 7 4 1 3 4 4 3 8 9 11 16 19 21 16 5 10 17 19 20 25 25 14 6 6 4 3 6 6 3 3 5 3 5 6 5 6 6 4 6 7 5 3 5 8 10 7 4 3 1 2 1 4 4 3 1 6 5 7 10 5 5 10 12 12 19 30 32 32 35 37 37 36
19 20 19 19 19 20 19 16 14 14 11 10 10 13 15 12 8 4 3 4 5 5 6 8 8 8 10 14 23 18 2 5 12 17 23 25 24 15 7 5 3 2 5 6 2 3 4 4 3 5 6 5 5 4 6 8 7 3 4 5 7 6 6 5 4 3 3 3 5 2 3 4 6 8 8 3 6 10 11 12 16 25 32 33 34 35 34 34
21 22 22 22 23 25 23 19 19 17 11 9 11 14 14 13 11 7 4 2 3 5 6 6 8 10 10 15 26 17 4 8 8 12 25 27 23 13 6 8 7 5 7 7 4 3 4 7 7 7 5 4 6 5 8 11 6 4 2 6 6 6 5 4 5 3 1 3 6 2 4 3 7 7 4 3 5 8 11 14 14 19 26 27 28 27 26 28
21 23 24 24 25 26 25 24 23 17 11 10 10 13 16 17 12 7 4 2 2 3 3 6 8 8 11 16 20 10 6 5 2 9 22 23 21 10 2 8 8 6 7 6 5 2 2 4 7 7 5 6 4 1 6 11 4 4 6 7 6 5 5 5 4 3 3 3 7 6 6 3 6 4 2 2 4 6 10 12 12 14 18 19 18 16 16 19
22 22 22 22 25 28 26 27 26 18 13 11 10 17 22 20 10 5 2 3 1 1 2 6 7 9 15 13 6 3 3 2 4 12 14 12 16 8 4 7 6 5 1 5 4 3 1 1 2 4 4 5 5 3 1 4 6 8 7 6 6 6 5 4 2 4 2 5 7 6 9 7 5 3 5 5 5 7 8 9 10 11 13 12 10 9 11 12
21 22 19 18 25 29 28 29 27 21 17 13 15 24 23 12 4 4 6 1 2 1 3 3 3 9 16 12 5 4 3 1 6 13 8 4 8 5 5 6 3 4 2 6 5 3 3 0 1 3 4 6 8 5 5 4 6 7 5 5 4 3 4 4 4 4 1 6 4 2 5 7 7 6 4 6 7 6 8 9 9 9 11 11 7 8 9 9
19 20 18 18 23 27 30 30 25 21 19 15 20 25 14 4 1 5 4 2 1 3 4 3 3 6 10 7 5 6 4 2 6 9 6 4 6 6 6 6 5 3 2 7 5 3 2 4 3 1 4 7 6 5 4 4 2 4 4 6 4 2 3 3 3 0 3 7 3 1 1 3 8 8 8 12 12 11 11 12 13 12 18 20 15 12 12 11
18 18 18 19 21 26 31 30 25 22 19 17 21 15 4 3 6 8 7 3 2 2 2 3 2 4 8 6 3 3 3 2 6 5 3 5 6 7 6 5 6 4 2 6 3 1 3 5 2 1 3 8 9 6 3 1 2 4 5 6 4 2 1 3 4 2 4 5 3 1 1 3 5 5 11 17 17 16 17 20 21 20 25 27 23 20 18 18
18 19 19 19 19 23 29 31 29 25 21 24 22 9 2 5 6 9 12 9 2 2 2 3 5 5 6 4 4 5 3 2 5 4 2 5 5 7 6 7 7 3 3 4 3 6 6 6 5 6 4 10 12 8 6 6 5 5 4 5 5 5 5 4 4 3 5 4 3 3 1 3 3 3 8 12 14 16 19 25 26 27 31 30 28 26 25 26
18 19 20 21 20 21 29 34 33 28 26 29 18 6 7 8 4 6 10 8 2 3 3 2 6 6 4 3 3 6 4 2 5 5 3 6 6 8 7 8 11 6 5 4 2 4 6 8 6 3 2 12 12 6 7 8 3 3 3 4 3 5 5 2 3 5 2 3 4 2 4 5 4 6 8 9 11 12 15 20 21 28 34 31 29 30 28 26
16 19 20 23 23 23 28 36 34 29 32 28 10 5 10 8 5 4 5 5 5 4 4 2 3 4 5 2 2 5 2 1 5 5 3 5 6 8 8 8 14 13 9 8 3 2 4 6 5 2 1 5 6 4 5 4 3 2 3 4 4 4 6 2 2 1 4 2 4 2 5 5 3 7 10 8 9 10 11 12 14 24 28 23 26 31 28 23
14 16 20 24 25 22 25 34 34 31 35 23 7 8 9 6 6 5 3 4 6 7 7 3 3 5 6 4 3 6 2 1 4 4 4 3 3 7 9 7 12 18 17 12 4 2 5 4 5 1 1 3 1 4 4 3 4 5 4 6 3 2 3 3 1 3 3 3 5 2 5 5 3 5 5 1 7 11 11 11 14 21 20 20 28 32 27 22
12 14 21 25 25 22 23 29 31 35 31 13 5 9 7 8 12 9 4 5 7 8 7 6 5 5 6 6 4 6 5 3 5 5 4 3 4 9 11 6 8 18 22 14 4 3 5 3 5 1 2 3 3 4 2 4 3 4 4 5 4 2 2 2 2 2 1 3 5 4 5 4 5 5 3 3 8 10 10 10 10 13 16 23 31 29 23 21
10 12 18 22 23 23 22 25 32 37 22 5 6 9 5 10 15 10 7 7 8 8 7 9 7 3 4 8 5 5 8 7 8 6 5 5 5 7 13 11 7 14 22 17 7 2 3 3 4 1 1 1 3 2 5 1 2 3 2 3 2 2 4 3 3 3 3 3 3 4 5 5 7 7 7 10 12 10 8 8 7 11 19 25 25 21 17 16
9 8 12 15 17 20 22 26 31 28 11 5 9 8 6 7 9 12 15 9 6 7 7 8 8 5 5 7 4 5 8 7 8 7 5 7 6 5 10 13 5 5 15 17 8 1 2 4 4 2 3 0 2 5 8 9 6 4 4 5 3 1 1 1 1 2 4 3 2 2 6 9 6 5 9 11 11 10 10 7 7 13 20 20 17 14 14 13
9 7 8 9 11 16 25 25 19 13 6 6 9 8 8 6 2 11 23 16 4 4 5 4 7 7 6 7 4 4 6 5 6 7 4 6 8 5 9 16 11 8 8 8 8 6 3 4 4 2 1 4 5 4 5 8 8 8 8 8 9 7 4 3 3 1 2 2 3 3 6 12 6 5 8 9 8 8 11 10 9 14 18 14 11 12 13 13
10 8 6 6 10 19 26 18 8 8 6 7 12 11 6 3 1 7 16 16 8 4 2 1 4 7 5 6 6 5 6 5 6 7 5 8 11 8 9 19 22 19 13 7 10 11 5 3 4 4 4 6 5 2 2 4 4 4 4 5 7 7 6 6 5 3 1 1 1 4 3 12 5 5 6 6 5 6 9 12 12 16 17 11 9 11 11 12
12 13 10 7 14 24 22 8 5 8 6 10 17 13 6 4 4 5 7 11 9 4 3 2 2 6 5 3 5 6 7 6 8 10 8 8 12 11 10 18 22 19 12 4 5 6 4 2 3 3 2 3 4 4 2 0 1 3 4 2 4 6 5 5 5 4 4 4 3 4 4 11 4 1 3 4 4 5 8 13 16 17 15 9 7 7 8 13
13 17 15 10 16 26 20 6 6 8 8 12 13 10 10 8 6 7 7 9 8 4 4 5 3 4 3 2 4 6 8 7 7 11 11 6 7 9 12 22 21 14 10 8 8 10 7 3 5 5 2 3 3 3 2 1 2 3 4 3 5 8 6 3 2 3 2 7 9 5 8 11 4 3 3 4 5 6 9 14 15 15 14 9 5 3 8 14
9 12 13 14 20 26 20 11 10 8 9 14 11 9 12 7 7 14 11 8 9 7 5 6 5 4 3 2 2 4 9 10 7 8 8 6 4 3 12 24 23 15 14 14 15 16 9 5 7 8 7 8 8 6 5 4 3 2 3 5 7 10 10 6 3 3 5 9 9 7 11 11 2 4 6 6 5 7 11 13 14 16 16 11 6 3 7 14
4 4 6 10 19 25 23 20 15 8 8 12 10 10 14 9 8 15 14 8 10 11 6 3 4 5 3 3 3 4 7 10 9 5 4 7 5 1 10 22 24 23 20 13 14 13 4 3 10 12 12 13 13 9 4 8 7 6 8 10 10 11 13 10 5 6 9 6 4 11 18 17 9 5 6 8 6 8 10 9 12 20 19 12 8 8 10 14
6 3 4 5 9 15 18 20 14 7 8 11 7 6 14 16 9 9 14 13 13 14 9 4 5 7 5 6 7 7 8 9 10 8 6 7 4 2 5 13 19 27 22 11 13 11 2 3 12 14 16 17 18 14 7 9 10 14 14 14 14 13 13 12 12 14 12 5 7 17 18 17 20 14 9 9 9 8 8 9 16 20 16 11 10 12 15 16
9 5 8 8 4 4 9 13 12 9 10 11 6 5 12 16 12 8 10 12 14 15 9 5 9 12 10 12 10 8 9 9 10 12 11 8 4 1 1 4 10 19 16 8 10 8 2 5 9 12 15 18 20 15 10 9 10 12 15 17 17 16 16 17 20 22 17 10 14 21 15 14 23 19 12 12 11 10 13 16 17 14 12 15 16 17 19 19
13 9 10 11 6 4 6 7 6 6 10 9 6 7 11 14 16 13 9 7 9 12 12 9 13 17 16 14 10 8 10 10 10 12 11 10 6 3 3 4 6 10 9 6 6 4 3 5 8 11 13 16 20 16 11 12 10 8 12 16 17 19 21 23 25 26 23 16 17 21 17 17 22 18 11 14 17 20 21 18 14 15 20 24 24 23 22 22
16 11 9 8 7 10 12 9 4 2 6 7 4 5 8 11 15 14 10 10 7 8 14 16 17 16 15 15 14 13 14 14 14 14 12 10 8 5 5 5 3 4 6 5 3 2 4 6 6 7 8 12 17 17 11 12 11 10 9 10 14 19 22 25 25 21 17 16 19 22 19 20 20 13 10 15 20 21 19 17 18 25 29 29 28 28 27 27
21 16 10 4 2 7 10 7 5 4 4 5 4 2 4 7 12 10 9 16 17 10 12 17 18 14 13 16 18 17 20 20 19 21 16 11 10 9 7 5 5 5 5 6 3 3 5 4 1 3 6 10 15 18 12 7 6 8 8 10 16 20 20 20 18 15 15 17 20 19 16 19 17 5 6 11 14 13 14 18 23 29 31 30 31 31 31 30
25 22 19 11 4 4 5 3 4 6 6 7 7 6 6 6 6 6 5 13 21 22 21 20 19 14 12 15 20 27 34 33 28 27 19 11 13 14 13 11 9 7 6 6 4 3 5 4 2 4 6 10 16 18 10 5 3 8 12 18 24 21 16 13 13 17 20 18 15 14 15 21 17 5 5 8 7 9 15 23 28 32 33 33 32 32 32 31
Wind_Direction
200 200 203 206 208 209 211 215 217 220 224 225 223 218 214 207 201 197 192 189 189 193 194 193 195 202 209 218 230 242 244 249 240 229 235 225 237 192 182 18 352 343 330 310 282 261 281 312 303 95 120 100 83 79 79 75 82 91 98 95 147 175 193 190 179 189 166 202 208 185 184 171 164 175 173 176 186 195 195 202 208 215 220 232 245 241 227 210
202 203 206 207 210 213 215 220 222 225 227 226 223 216 212 207 202 198 194 193 192 197 195 194 199 208 215 220 232 246 250 254 244 237 237 215 200 174 149 101 54 26 9 347 327 303 281 192 206 124 124 98 69 68 83 59 60 78 103 98 195 194 206 197 179 191 171 63 185 178 184 183 179 174 170 181 197 186 200 219 222 227 228 232 241 233 224 215
205 206 207 207 210 213 217 224 227 228 226 222 220 214 210 206 203 199 196 196 196 198 195 195 204 213 220 223 233 250 261 261 248 239 224 207 189 169 154 128 82 48 32 27 31 39 122 163 134 113 104 91 62 69 76 47 54 74 96 95 231 212 229 219 194 205 208 185 168 172 182 187 189 180 179 197 194 197 220 222 223 230 232 233 234 228 224 219
210 208 209 209 210 213 219 226 228 227 222 219 216 213 211 207 205 202 200 200 200 198 195 200 209 215 224 226 232 241 271 281 238 219 218 207 186 175 169 156 89 39 26 27 36 63 101 125 115 105 92 80 43 62 51 28 49 77 103 151 219 188 184 229 216 224 217 215 178 172 167 185 197 190 195 185 158 251 238 228 230 237 242 241 235 229 227 224
210 209 208 209 211 214 220 224 225 222 218 216 213 212 211 209 208 206 203 202 199 197 197 206 214 220 228 229 238 222 210 4 206 197 202 194 182 182 185 191 217 3 5 9 17 65 95 103 112 99 80 62 27 51 23 20 76 78 57 212 170 144 129 228 204 208 204 196 177 167 162 190 192 198 211 194 189 240 244 242 242 245 249 249 245 239 233 228
205 206 207 210 211 213 215 216 215 213 212 208 204 207 208 208 209 208 205 200 197 197 201 211 218 224 232 234 244 220 197 40 180 179 173 178 179 187 196 217 247 307 327 336 356 54 99 99 111 97 72 54 23 53 33 10 70 94 355 231 161 162 145 170 180 175 180 177 174 174 184 194 182 208 225 214 226 239 244 254 247 247 244 243 247 243 239 235
200 203 205 208 207 206 205 203 204 204 204 201 196 196 200 203 204 204 201 197 198 199 206 215 222 229 237 241 245 232 234 238 173 172 168 172 177 188 201 230 252 292 309 303 322 38 120 112 119 107 86 71 63 77 36 21 52 101 114 197 177 209 241 174 180 169 167 180 188 186 194 198 192 209 233 230 239 244 248 252 248 252 247 244 245 242 243 240
195 199 201 200 198 197 195 192 193 194 194 194 193 191 194 198 198 200 199 199 202 205 212 217 224 232 240 246 249 250 245 227 185 180 175 177 179 188 204 232 265 302 314 294 311 95 133 154 144 124 95 87 139 133 32 42 43 64 142 206 177 212 229 186 185 181 181 202 204 201 208 214 212 218 249 245 247 248 249 253 253 255 253 249 246 243 242 239
190 191 193 192 190 191 191 189 188 188 187 187 189 191 196 197 195 198 201 204 207 211 218 220 228 236 243 246 255 269 242 220 203 193 184 187 187 189 208 235 274 305 331 333 21 132 156 151 162 158 146 139 126 82 47 70 354 42 136 170 168 185 228 198 205 200 207 222 207 214 231 237 229 239 263 254 252 252 251 254 255 255 253 250 246 242 239 238
184 184 187 188 189 191 193 193 193 192 188 188 190 192 197 199 198 200 203 209 213 220 224 227 234 237 245 247 241 247 232 218 205 196 193 196 192 194 209 238 280 309 352 29 62 85 143 145 153 145 136 135 117 67 42 74 121 101 110 127 135 307 278 228 227 227 227 236 223 218 238 257 227 207 257 253 250 249 248 251 252 252 250 247 243 240 238 236
186 187 188 188 190 194 196 199 202 202 201 202 202 201 203 204 203 205 208 213 218 226 231 235 240 241 246 245 223 211 226 226 208 198 198 201 196 196 206 232 271 302 343 59 77 88 122 126 136 140 131 133 120 69 57 82 103 83 60 316 325 336 298 247 237 236 222 240 237 220 247 283 190 192 244 247 248 248 246 247 249 249 247 243 239 238 237 236
197 198 196 195 196 198 199 201 205 206 207 211 213 213 213 214 214 216 220 223 226 232 238 241 243 244 246 248 240 234 243 246 211 200 199 201 199 197 206 227 257 266 251 94 93 105 121 118 122 136 136 144 139 74 88 89 81 63 54 321 315 354 335 253 241 222 198 231 232 192 275 283 214 228 242 246 246 245 245 244 246 245 242 239 236 236 236 236
208 210 210 208 205 203 202 201 203 204 205 209 212 212 214 220 223 224 227 231 234 237 241 244 246 247 249 252 251 244 243 244 218 202 199 202 202 200 205 220 233 233 220 167 121 122 126 117 101 120 130 138 138 116 122 78 62 53 51 52 326 0 337 278 37 184 181 201 177 147 270 270 241 242 242 246 245 239 239 240 242 242 240 238 236 236 236 235
213 218 220 221 218 214 209 203 201 201 203 207 210 211 212 218 225 228 231 235 238 240 242 244 246 248 247 248 254 249 239 234 221 208 203 205 205 203 208 221 225 218 218 203 158 154 129 71 77 117 118 117 127 125 99 29 43 17 14 26 11 12 285 294 37 153 158 199 175 144 263 266 265 263 250 245 244 237 238 241 242 242 241 241 240 239 240 238
218 220 222 226 227 224 220 213 207 204 204 208 211 213 212 215 224 228 233 237 239 242 243 244 246 245 253 255 251 249 239 230 222 215 210 209 208 208 209 217 219 212 213 212 196 199 282 354 109 102 101 111 122 113 35 3 23 27 353 311 346 151 269 307 278 168 150 191 172 149 257 269 275 279 267 238 233 230 237 244 244 246 246 245 245 244 246 245
225 225 225 227 228 230 229 223 219 214 212 214 215 217 218 221 227 231 237 239 240 243 243 245 243 231 252 263 247 243 239 231 223 219 215 212 210 208 208 216 219 212 208 212 218 224 276 273 117 89 105 122 114 89 47 11 345 2 63 244 275 172 273 317 302 194 146 117 177 194 248 279 285 286 289 223 223 225 233 245 246 248 251 248 248 249 250 251
233 232 232 231 229 231 231 230 228 224 224 224 224 225 227 229 233 238 238 237 238 238 235 236 235 231 248 254 243 240 235 227 224 219 215 212 210 208 211 216 210 209 206 208 221 226 257 167 129 99 74 81 89 92 67 329 292 315 17 233 238 203 213 294 316 269 97 96 212 228 236 259 267 275 285 254 230 226 231 246 251 251 253 251 251 252 252 253
240 241 242 240 238 236 234 233 230 229 231 231 233 234 236 240 243 244 239 236 225 215 228 217 192 206 251 238 230 231 231 227 224 218 213 210 209 210 214 213 206 205 194 194 216 202 185 97 107 72 19 25 63 105 137 223 208 198 184 190 247 241 221 252 284 246 133 79 233 221 247 259 267 274 272 266 246 234 240 251 256 256 256 254 253 253 253 253
248 249 249 247 247 245 242 238 234 232 233 234 236 235 239 246 248 249 237 221 199 172 201 208 188 156 223 228 229 235 241 233 221 216 212 209 210 211 208 202 194 180 152 153 207 151 129 87 81 78 250 218 192 166 189 202 163 160 171 155 184 220 253 236 248 252 181 152 239 226 236 254 264 272 271 267 248 239 249 256 258 259 257 255 254 254 254 253
254 254 253 254 252 252 250 246 242 237 233 234 235 232 232 218 210 261 235 221 217 215 223 212 202 204 217 263 241 237 238 230 219 211 208 208 208 204 192 180 164 148 136 152 181 118 113 126 164 219 218 202 202 194 179 153 126 121 130 138 187 208 265 250 250 282 198 174 251 234 234 257 262 265 270 271 250 237 247 251 255 257 257 255 255 255 255 255
260 259 258 258 256 257 255 250 247 242 237 235 230 224 214 195 181 287 238 236 241 236 239 242 225 221 234 254 253 238 223 217 214 208 205 204 200 192 183 167 135 133 204 130 119 92 104 153 224 231 215 196 196 174 133 110 100 95 126 177 248 213 253 251 233 299 231 176 267 268 252 262 262 263 269 271 245 236 245 246 251 255 256 256 256 257 257 257
258 263 265 263 259 259 258 254 249 244 240 236 229 221 216 218 220 240 273 281 271 256 248 246 242 237 237 239 242 235 210 201 209 207 201 194 190 189 179 157 134 160 172 100 100 59 87 221 243 232 155 117 109 123 130 124 109 95 119 154 262 242 273 282 282 329 21 185 271 309 278 264 264 264 264 260 247 248 252 251 256 257 256 257 257 258 258 256
247 259 267 268 267 263 262 261 253 245 239 235 232 224 221 231 232 245 283 305 283 271 256 248 246 243 237 233 235 228 208 204 210 203 199 192 187 188 175 153 136 139 137 161 158 151 177 246 252 209 142 122 88 104 122 116 131 158 148 160 240 244 273 284 292 323 174 193 278 300 285 273 267 266 258 252 248 253 259 257 260 260 257 259 261 261 261 258
237 245 260 271 274 270 268 266 259 251 239 232 233 229 227 231 232 253 276 292 288 270 257 251 246 243 238 233 233 224 213 218 216 202 199 192 180 178 182 163 135 133 179 193 176 182 219 251 259 141 152 152 123 119 135 146 233 236 195 195 216 223 218 232 289 325 324 351 8 331 299 280 259 261 260 261 259 258 260 259 261 260 259 260 261 261 260 259
230 235 247 259 268 272 271 266 262 258 244 233 231 226 225 225 224 254 276 305 294 272 260 247 239 242 236 229 226 216 212 227 226 212 203 197 185 171 173 170 153 179 201 181 166 224 249 245 127 112 143 150 136 161 177 169 207 274 230 205 212 219 224 244 356 9 353 332 340 20 307 283 285 270 260 282 312 267 258 256 257 260 261 260 259 260 259 258
226 228 233 246 257 261 257 255 262 266 249 238 228 217 218 214 203 213 128 42 295 247 218 215 219 232 223 215 206 193 212 243 225 214 204 200 196 178 153 161 151 195 184 155 163 239 241 207 134 127 145 156 159 205 215 176 156 272 250 204 208 207 213 242 111 63 296 265 289 55 238 277 306 280 264 266 269 264 262 259 259 263 265 262 261 264 263 260
225 224 228 241 248 246 243 244 255 259 247 239 224 207 208 195 168 167 106 19 283 195 153 182 187 191 202 198 186 177 204 213 192 204 199 195 197 187 178 171 126 183 160 130 225 248 169 168 139 127 130 146 178 220 219 171 147 236 251 165 172 175 195 208 160 180 235 268 303 43 143 274 287 270 277 276 257 272 275 268 265 262 263 264 266 268 267 265
229 227 229 239 248 248 249 249 251 252 249 247 227 202 191 173 157 139 98 340 260 145 145 179 171 180 185 180 181 176 134 137 145 194 192 188 192 189 197 195 165 180 171 150 215 258 143 177 192 169 151 176 200 221 189 160 156 246 208 119 136 152 165 141 129 180 328 354 292 241 137 263 270 262 302 324 257 271 273 265 263 260 263 269 273 274 272 269
234 231 230 239 250 247 248 250 247 245 240 237 221 193 171 154 142 105 81 239 208 120 152 167 161 172 155 160 183 182 124 127 97 178 180 182 189 183 187 198 170 160 190 196 222 259 88 190 199 167 166 203 209 268 180 168 180 189 131 94 81 80 81 86 112 129 57 321 252 206 153 228 271 241 212 286 251 246 260 264 264 267 273 278 277 277 275 271
240 237 232 238 242 235 234 241 241 237 229 224 201 177 161 147 129 98 163 226 218 112 134 159 173 165 146 146 194 215 129 86 87 142 161 177 184 174 115 161 150 123 204 291 267 250 346 61 175 175 188 179 130 60 82 150 144 136 112 69 54 39 42 55 53 86 77 274 255 205 179 190 268 257 197 226 231 213 234 260 270 277 283 282 279 277 273 273
241 241 236 237 238 232 228 233 236 229 221 218 185 167 157 142 115 167 197 248 350 176 130 157 187 154 153 156 180 190 148 79 133 142 148 165 175 167 118 139 129 85 7 294 275 300 336 70 220 213 185 133 102 66 32 64 116 117 89 81 76 352 9 25 353 53 151 255 280 261 180 178 234 257 235 249 257 232 226 247 263 277 281 274 276 285 283 280
241 241 237 235 240 239 232 236 241 226 216 209 177 165 156 136 171 205 205 27 15 196 166 177 195 164 167 167 172 172 139 126 166 161 157 151 168 187 186 183 165 121 258 238 245 337 288 232 259 272 190 162 122 77 40 24 49 88 98 111 99 334 351 343 298 117 224 252 275 319 128 202 238 251 257 260 261 248 234 239 246 256 266 266 270 281 285 282
243 240 237 235 243 244 237 240 243 226 213 192 169 158 135 167 192 206 203 186 200 210 135 128 111 131 152 154 190 165 113 181 182 173 164 145 170 208 228 224 182 157 199 198 208 274 274 289 268 152 228 193 166 152 162 204 181 157 148 141 138 148 179 263 265 268 267 267 275 247 206 254 265 259 243 243 248 246 243 249 253 257 263 267 270 272 272 273
242 240 237 235 242 246 242 240 238 228 207 177 163 142 128 201 203 200 205 217 231 36 39 96 91 104 149 170 213 170 144 225 176 145 131 140 167 212 229 230 208 157 104 150 183 189 221 280 212 180 196 183 184 189 165 137 159 187 157 139 162 165 171 218 225 226 259 283 294 280 231 203 211 250 237 237 259 264 253 252 257 262 266 270 273 270 267 267
242 240 235 233 235 239 240 237 235 227 194 168 159 154 180 203 217 196 209 221 211 51 14 41 95 122 190 258 270 191 177 221 171 141 155 169 188 205 200 208 201 170 140 183 219 168 204 260 240 232 161 166 181 188 130 112 146 217 120 122 199 191 164 195 207 182 191 306 298 243 227 216 210 269 268 250 267 275 259 255 258 261 263 268 272 272 270 266
248 240 235 234 230 229 233 232 231 216 183 163 156 193 194 209 205 178 198 192 175 138 99 62 87 131 201 229 265 225 222 89 157 156 193 201 216 210 201 208 197 185 181 187 196 141 183 268 286 344 53 169 184 172 134 138 181 166 139 181 218 176 138 134 256 62 73 282 272 209 244 287 312 282 271 252 258 267 266 267 259 253 258 268 273 273 274 269
254 243 240 236 229 227 227 230 226 199 176 166 171 199 201 226 203 173 188 163 153 150 143 174 185 161 190 198 207 213 212 58 157 177 202 197 240 217 209 227 202 194 199 193 204 193 167 254 297 74 179 267 349 109 84 57 126 129 182 205 177 99 100 118 217 352 43 253 271 244 249 283 296 275 290 268 250 256 256 254 251 255 263 271 269 270 273 275
258 252 250 241 233 226 221 229 218 185 172 172 203 205 203 220 210 192 165 140 137 152 180 219 203 166 179 190 200 189 174 174 178 190 194 178 245 216 194 218 211 202 206 196 208 246 162 229 299 57 188 284 21 109 92 12 77 131 182 179 128 139 203 126 156 209 200 246 278 289 278 260 215 231 251 211 227 238 243 240 244 258 259 257 261 266 273 280
261 258 257 248 236 223 219 227 206 182 174 185 207 209 208 219 222 207 168 152 153 167 201 221 208 173 177 181 175 167 180 189 174 176 190 183 233 214 184 197 211 205 203 190 193 243 143 196 269 336 261 312 29 159 190 201 39 59 108 142 123 163 181 167 159 169 182 227 266 308 316 267 216 202 198 215 225 218 226 239 232 241 247 250 257 267 279 287
256 251 259 251 236 221 214 214 199 183 186 212 201 211 215 217 224 213 209 201 162 179 208 218 202 191 193 186 171 166 192 200 176 183 206 191 217 240 191 190 183 179 188 184 194 219 114 202 234 331 339 170 184 217 197 180 163 145 163 179 192 152 110 167 178 130 142 165 205 300 297 269 237 184 190 213 224 208 200 218 229 236 244 250 256 273 292 298
242 243 257 241 230 215 200 197 194 192 207 208 209 223 218 214 178 201 215 221 221 215 219 216 202 197 191 188 197 184 181 193 184 194 229 203 213 246 199 184 164 129 146 168 200 205 177 193 186 161 229 199 216 241 207 193 187 181 186 192 193 178 149 179 233 223 123 147 181 177 273 272 247 180 198 206 215 213 199 202 227 238 239 248 268 285 297 301
228 238 248 209 207 201 188 183 195 209 211 211 219 223 212 215 182 192 209 213 225 253 263 253 212 207 198 185 195 177 162 184 191 193 228 219 216 230 202 185 170 154 149 170 203 199 171 125 158 192 216 215 236 273 207 220 224 209 210 203 193 183 165 172 201 216 156 211 189 114 268 273 250 176 209 209 210 231 212 203 220 239 241 254 278 282 295 308
225 237 245 225 211 197 184 183 213 201 215 226 223 222 215 222 212 184 189 199 208 216 222 248 205 207 222 182 169 173 176 194 195 197 218 228 226 232 204 182 171 158 155 177 204 183 138 111 191 227 301 312 311 337 7 128 162 228 243 190 169 194 184 164 177 181 164 197 179 102 253 267 283 122 241 251 252 255 234 219 226 242 249 253 262 279 315 319
242 249 254 255 223 199 187 196 208 199 220 225 225 221 216 227 216 193 191 193 195 186 206 233 214 202 227 140 149 183 191 198 206 208 215 226 233 229 199 185 178 168 177 189 176 166 167 187 199 206 257 305 311 314 290 236 161 218 234 189 190 195 171 123 131 137 181 213 185 163 242 251 281 344 310 293 284 268 244 235 239 249 248 234 234 295 322 309
260 258 247 245 230 212 209 218 208 205 216 218 228 221 212 229 214 205 210 202 199 199 203 222 211 191 195 145 156 200 198 208 224 213 213 237 257 225 197 192 185 188 207 201 177 168 172 192 188 194 219 227 229 235 225 194 156 214 219 192 200 193 176 182 189 161 225 224 182 184 242 246 279 348 296 278 286 274 250 239 242 248 242 231 233 260 282 290
255 258 222 223 225 224 236 244 229 216 212 213 225 218 213 228 215 204 208 207 210 212 214 232 198 182 185 177 198 223 211 222 234 215 200 225 237 257 202 195 191 202 215 205 176 167 154 199 193 196 209 218 233 238 177 129 144 202 211 189 193 200 191 194 199 202 219 219 182 216 236 249 259 250 251 260 254 250 252 241 237 240 236 228 227 237 255 271
227 238 206 202 215 222 240 251 241 225 214 210 206 200 213 222 224 204 199 204 211 208 215 251 206 195 197 188 206 227 217 221 231 227 223 220 229 304 215 194 200 209 212 200 178 165 109 215 204 208 212 219 235 233 177 144 172 199 203 192 195 200 192 194 212 220 214 196 236 234 226 244 258 243 222 242 244 243 258 251 237 234 232 232 236 243 254 261
225 244 234 224 219 202 225 241 240 237 237 226 204 196 214 217 222 213 193 203 213 202 201 232 217 216 215 200 207 223 218 223 229 227 230 223 212 334 227 201 220 217 208 196 186 168 150 218 207 215 219 224 237 230 184 176 196 196 198 197 195 194 190 199 216 224 216 201 236 244 224 226 251 250 225 220 221 223 237 239 235 234 243 252 251 249 253 257
230 250 253 243 246 253 255 264 259 238 240 243 225 212 217 215 217 215 190 193 214 200 197 213 217 217 219 213 211 212 210 215 222 223 226 221 204 165 187 219 232 218 196 185 204 182 170 211 202 209 221 229 238 233 193 192 211 206 202 201 195 194 196 203 215 222 221 217 235 251 248 241 249 250 229 215 214 219 230 238 245 254 257 257 255 253 252 254
226 232 251 261 264 264 270 278 292 275 239 238 232 224 231 228 224 217 194 190 203 190 196 216 225 216 212 217 219 220 219 214 219 223 214 213 216 187 195 212 180 176 180 180 224 205 186 218 206 194 220 235 241 243 217 198 212 218 215 208 203 203 203 210 218 221 221 227 238 247 255 258 254 242 221 219 215 217 231 244 250 252 252 252 252 251 251 253
229 227 237 267 280 254 258 254 245 264 259 235 222 219 243 243 236 233 212 205 207 197 190 210 227 224 214 219 221 227 230 222 225 230 220 219 230 213 210 212 151 147 185 188 197 173 182 231 217 162 226 237 241 247 234 197 215 236 232 217 211 211 210 212 217 216 212 218 231 239 247 255 254 214 179 215 208 206 229 239 243 249 249 247 247 247 250 253
233 234 240 249 261 239 241 237 216 229 244 240 229 223 228 243 248 257 248 215 212 215 210 207 217 222 217 219 220 227 231 229 230 236 238 253 256 238 233 228 199 176 178 179 184 165 170 201 208 196 225 239 244 246 227 160 196 240 233 223 218 215 213 212 217 221 217 211 218 227 234 246 251 211 181 225 203 198 224 232 240 249 251 249 249 250 254 257
Height
1513 1514 1514 1515 1516 1517 1517 1518 1519 1519 1519 1520 1520 1520 1520 1521 1521 1522 1523 1524 1524 1525 1526 1527 1528 1528 1529 1529 1529 1530 1530 1530 1531 1531 1532 1532 1533 1533 1534 1534 1534 1534 1534 1534 1534 1534 1534 1534 1534 1534 1534 1534 1534 1534 1535 1535 1536 1536 1542 1546 1548 1554 1552 1548 1551 1550 1548 1547 1547 1548 1549 1550 1550 1551 1551 1552 1552 1552 1552 1552 1552 1552 1552 1552 1553 1553 1553 1554
1512 1513 1514 1515 1515 1516 1517 1518 1518 1518 1519 1519 1520 1520 1520 1521 1521 1522 1523 1524 1524 1525 1526 1527 1527 1528 1528 1529 1529 1529 1530 1530 1531 1531 1532 1532 1533 1533 1534 1534 1534 1534 1534 1534 1534 1534 1534 1534 1534 1535 1534 1535 1535 1535 1535 1536 1536 1539 1545 1546 1546 1550 1547 1544 1546 1546 1546 1546 1546 1548 1549 1549 1550 1550 1551 1552 1552 1552 1552 1551 1551 1551 1551 1551 1552 1552 1553 1553
1511 1512 1513 1514 1515 1516 1516 1517 1517 1518 1518 1518 1519 1519 1520 1521 1521 1522 1523 1523 1524 1525 1526 1526 1527 1528 1528 1528 1529 1529 1530 1530 1530 1531 1532 1532 1533 1533 1534 1534 1534 1534 1534 1534 1534 1534 1534 1534 1535 1535 1535 1535 1536 1536 1536 1536 1537 1539 1543 1544 1545 1546 1544 1544 1545 1545 1546 1546 1547 1548 1548 1549 1550 1550 1551 1551 1552 1552 1551 1550 1550 1550 1550 1550 1551 1551 1552 1552
1510 1511 1512 1513 1514 1515 1515 1516 1517 1517 1518 1518 1519 1519 1520 1520 1521 1522 1522 1523 1524 1525 1525 1526 1527 1527 1528 1528 1529 1530 1530 1530 1530 1531 1531 1532 1533 1533 1534 1534 1534 1534 1534 1534 1534 1534 1534 1535 1535 1535 1535 1535 1536 1536 1537 1538 1538 1539 1541 1542 1544 1544 1544 1544 1544 1545 1546 1546 1547 1548 1549 1549 1549 1550 1550 1550 1552 1551 1549 1548 1548 1548 1549 1550 1550 1550 1551 1551
1509 1510 1511 1512 1513 1514 1515 1515 1516 1517 1517 1518 1518 1519 1520 1520 1521 1522 1522 1523 1524 1525 1525 1526 1527 1527 1528 1528 1529 1530 1530 1531 1530 1530 1531 1531 1532 1533 1534 1534 1534 1534 1535 1535 1534 1534 1534 1535 1535 1535 1535 1536 1537 1537 1538 1539 1538 1540 1542 1543 1543 1544 1544 1543 1544 1545 1545 1547 1548 1548 1549 1548 1549 1549 1549 1550 1550 1548 1547 1547 1547 1548 1549 1549 1549 1550 1550 1550
1508 1510 1511 1512 1513 1513 1514 1515 1516 1516 1517 1518 1518 1519 1520 1520 1521 1522 1522 1523 1524 1525 1525 1526 1527 1527 1528 1529 1529 1530 1531 1531 1530 1530 1531 1531 1532 1533 1533 1534 1534 1534 1534 1535 1535 1534 1535 1535 1535 1536 1536 1538 1539 1539 1539 1540 1539 1541 1543 1544 1544 1544 1544 1543 1544 1544 1545 1547 1547 1548 1548 1548 1549 1548 1548 1548 1546 1545 1545 1546 1547 1547 1548 1548 1548 1549 1549 1549
1508 1509 1510 1511 1512 1513 1514 1514 1515 1516 1517 1518 1518 1519 1520 1520 1521 1522 1523 1523 1524 1525 1526 1526 1527 1527 1528 1529 1529 1530 1530 1530 1530 1531 1531 1531 1532 1533 1533 1534 1534 1534 1534 1534 1534 1534 1535 1535 1535 1536 1537 1539 1540 1540 1540 1540 1539 1540 1543 1544 1544 1544 1544 1544 1545 1545 1546 1547 1547 1548 1548 1548 1548 1548 1548 1546 1543 1544 1545 1545 1546 1546 1547 1547 1547 1547 1548 1548
1507 1508 1509 1510 1511 1512 1513 1514 1514 1515 1516 1517 1518 1519 1519 1520 1521 1522 1523 1523 1524 1525 1526 1526 1527 1527 1528 1529 1529 1530 1529 1530 1530 1531 1531 1532 1532 1533 1533 1534 1534 1534 1534 1534 1534 1535 1535 1535 1536 1536 1538 1540 1540 1540 1541 1540 1540 1541 1543 1544 1544 1544 1544 1544 1544 1545 1546 1547 1548 1548 1547 1548 1547 1548 1546 1543 1542 1543 1543 1544 1544 1545 1545 1546 1546 1546 1546 1547
1506 1508 1509 1510 1511 1512 1513 1513 1514 1515 1516 1517 1518 1519 1519 1520 1521 1522 1522 1523 1524 1525 1526 1526 1527 1527 1528 1528 1529 1529 1529 1529 1530 1530 1531 1532 1532 1533 1533 1534 1534 1534 1534 1534 1534 1534 1535 1536 1536 1536 1538 1540 1540 1540 1541 1541 1542 1543 1543 1544 1544 1544 1544 1544 1544 1545 1546 1546 1547 1547 1547 1548 1547 1548 1544 1539 1541 1542 1542 1542 1542 1543 1543 1544 1544 1544 1545 1545
1506 1507 1508 1509 1511 1512 1513 1513 1514 1515 1516 1516 1517 1518 1519 1520 1521 1521 1522 1523 1524 1525 1525 1526 1527 1527 1528 1528 1529 1529 1528 1529 1529 1530 1531 1531 1532 1533 1533 1534 1534 1534 1534 1534 1534 1535 1535 1536 1536 1537 1537 1539 1540 1541 1541 1542 1543 1543 1544 1544 1544 1544 1544 1544 1544 1545 1546 1546 1547 1547 1548 1547 1548 1548 1541 1537 1539 1540 1540 1541 1540 1541 1541 1542 1543 1543 1543 1544
1506 1506 1507 1509 1510 1511 1512 1513 1514 1515 1515 1516 1517 1518 1519 1519 1520 1521 1522 1522 1523 1524 1525 1525 1526 1527 1527 1528 1528 1528 1528 1528 1529 1529 1531 1531 1532 1533 1533 1534 1534 1534 1534 1535 1535 1535 1536 1536 1537 1537 1538 1539 1541 1542 1542 1542 1543 1544 1544 1544 1544 1544 1544 1544 1544 1545 1546 1546 1546 1547 1548 1547 1548 1546 1538 1536 1538 1538 1539 1539 1539 1539 1539 1540 1541 1541 1542 1542
1505 1506 1507 1508 1509 1510 1511 1512 1513 1514 1515 1516 1517 1517 1518 1519 1520 1521 1521 1522 1523 1524 1524 1525 1526 1526 1527 1527 1527 1527 1528 1528 1528 1529 1530 1531 1532 1533 1533 1534 1534 1534 1535 1535 1536 1536 1536 1537 1537 1538 1538 1540 1541 1542 1543 1543 1544 1544 1544 1545 1545 1545 1544 1543 1544 1545 1545 1546 1546 1547 1548 1547 1546 1540 1534 1536 1537 1537 1538 1537 1537 1537 1538 1538 1539 1540 1540 1540
1505 1506 1507 1508 1509 1510 1510 1512 1513 1514 1514 1515 1516 1517 1518 1518 1519 1520 1521 1521 1522 1523 1524 1524 1525 1525 1526 1526 1525 1526 1527 1528 1528 1529 1530 1531 1532 1532 1533 1534 1534 1535 1535 1535 1536 1537 1537 1537 1538 1538 1539 1540 1541 1542 1543 1544 1544 1544 1546 1546 1547 1547 1545 1543 1544 1545 1545 1546 1545 1548 1548 1542 1539 1536 1533 1536 1536 1536 1536 1535 1536 1536 1536 1537 1537 1537 1538 1539
1504 1505 1506 1507 1508 1509 1510 1511 1512 1513 1514 1515 1515 1516 1517 1517 1518 1519 1520 1521 1521 1522 1523 1523 1524 1525 1525 1525 1525 1525 1526 1527 1528 1528 1529 1530 1531 1532 1533 1533 1534 1535 1535 1536 1536 1537 1537 1538 1538 1539 1539 1540 1541 1542 1544 1545 1545 1546 1548 1549 1554 1552 1545 1543 1545 1545 1544 1545 1545 1548 1548 1540 1535 1534 1533 1534 1534 1535 1534 1533 1535 1534 1535 1535 1535 1536 1535 1537
1503 1504 1505 1507 1508 1508 1509 1510 1511 1512 1513 1514 1515 1515 1516 1517 1517 1518 1519 1520 1521 1522 1522 1523 1523 1524 1525 1524 1524 1524 1525 1526 1527 1528 1529 1530 1531 1532 1532 1533 1534 1535 1535 1536 1536 1537 1538 1538 1538 1539 1540 1540 1541 1543 1545 1547 1548 1551 1550 1551 1559 1556 1547 1544 1544 1544 1544 1544 1545 1547 1547 1540 1534 1532 1532 1533 1533 1533 1533 1532 1534 1533 1533 1533 1533 1534 1533 1534
1502 1503 1504 1505 1506 1508 1509 1510 1511 1512 1512 1513 1514 1515 1516 1516 1517 1518 1518 1519 1520 1521 1522 1523 1523 1524 1524 1523 1523 1523 1524 1525 1526 1527 1528 1529 1530 1531 1532 1533 1534 1534 1535 1536 1536 1537 1538 1538 1539 1540 1541 1541 1543 1544 1547 1550 1551 1554 1553 1551 1555 1555 1551 1547 1543 1544 1544 1544 1545 1546 1544 1539 1533 1531 1531 1532 1532 1532 1532 1532 1532 1531 1531 1531 1531 1531 1531 1531
1501 1502 1503 1504 1505 1506 1507 1509 1510 1511 1512 1513 1513 1514 1515 1516 1517 1517 1518 1519 1520 1520 1522 1522 1523 1524 1523 1522 1522 1522 1522 1523 1524 1526 1527 1528 1529 1530 1531 1532 1533 1534 1535 1536 1537 1537 1538 1539 1540 1541 1542 1543 1545 1545 1550 1554 1552 1553 1557 1555 1555 1556 1554 1549 1543 1544 1545 1545 1545 1545 1544 1538 1531 1530 1531 1531 1532 1532 1531 1530 1530 1529 1529 1529 1529 1529 1528 1528
1500 1501 1502 1503 1504 1505 1506 1508 1509 1510 1511 1512 1513 1514 1515 1516 1516 1517 1518 1518 1519 1521 1522 1521 1522 1525 1523 1520 1520 1520 1521 1522 1523 1524 1526 1527 1528 1529 1531 1531 1533 1534 1534 1536 1536 1537 1538 1539 1540 1542 1544 1545 1545 1545 1549 1550 1546 1547 1551 1552 1553 1556 1556 1552 1546 1544 1545 1545 1544 1545 1545 1538 1531 1530 1529 1530 1531 1530 1529 1528 1528 1527 1527 1527 1527 1526 1525 1524
1500 1500 1501 1502 1503 1504 1505 1506 1508 1509 1510 1511 1512 1513 1514 1515 1516 1517 1517 1518 1519 1519 1519 1519 1519 1522 1521 1518 1519 1520 1520 1522 1522 1523 1525 1526 1527 1528 1530 1531 1532 1533 1534 1536 1537 1538 1539 1539 1542 1544 1544 1543 1543 1542 1542 1541 1541 1543 1546 1547 1548 1550 1551 1550 1546 1544 1544 1545 1544 1543 1541 1536 1532 1529 1527 1528 1529 1529 1528 1527 1525 1524 1523 1523 1523 1522 1521 1520
1499 1500 1500 1501 1502 1503 1504 1505 1507 1508 1509 1510 1511 1513 1514 1515 1516 1516 1516 1516 1516 1516 1516 1516 1516 1518 1518 1517 1518 1519 1520 1521 1522 1522 1524 1525 1526 1528 1529 1531 1532 1533 1535 1536 1538 1539 1539 1541 1543 1540 1538 1538 1539 1539 1539 1542 1544 1545 1547 1548 1549 1550 1548 1545 1545 1544 1545 1544 1540 1539 1539 1536 1532 1528 1526 1526 1528 1527 1526 1524 1522 1520 1519 1519 1518 1517 1517 1516
1498 1499 1500 1500 1501 1502 1502 1504 1505 1506 1508 1509 1511 1512 1513 1514 1515 1515 1515 1514 1514 1514 1515 1515 1516 1516 1516 1517 1518 1518 1519 1520 1521 1522 1523 1524 1526 1527 1529 1530 1532 1534 1536 1537 1539 1539 1540 1543 1540 1534 1533 1536 1539 1541 1542 1544 1546 1546 1547 1548 1550 1553 1548 1543 1544 1544 1545 1545 1539 1538 1540 1536 1531 1527 1524 1525 1526 1523 1521 1520 1517 1514 1514 1514 1513 1512 1512 1513
1498 1498 1499 1500 1500 1501 1501 1502 1504 1505 1507 1508 1510 1511 1512 1513 1514 1515 1515 1514 1513 1513 1513 1514 1514 1515 1515 1516 1516 1517 1518 1519 1520 1521 1521 1523 1525 1526 1527 1529 1531 1534 1537 1538 1539 1541 1544 1543 1535 1531 1536 1539 1540 1543 1543 1544 1546 1546 1549 1551 1550 1551 1547 1542 1544 1545 1545 1544 1540 1540 1540 1535 1530 1526 1523 1523 1521 1517 1516 1515 1512 1510 1510 1509 1508 1507 1508 1509
1497 1497 1498 1498 1499 1500 1500 1501 1502 1503 1505 1507 1508 1510 1512 1513 1514 1515 1516 1515 1512 1511 1511 1511 1512 1512 1513 1514 1514 1516 1516 1516 1518 1518 1520 1522 1523 1525 1526 1528 1531 1534 1537 1537 1537 1542 1544 1538 1531 1532 1536 1537 1540 1543 1543 1544 1546 1546 1549 1550 1548 1550 1547 1541 1542 1545 1545 1544 1542 1541 1540 1534 1527 1523 1518 1516 1515 1513 1512 1511 1508 1507 1506 1504 1503 1504 1504 1505
1495 1496 1498 1497 1498 1498 1498 1500 1500 1502 1504 1505 1507 1509 1511 1512 1514 1515 1515 1516 1512 1509 1508 1509 1509 1508 1509 1512 1513 1514 1514 1514 1515 1515 1518 1520 1522 1525 1525 1526 1531 1534 1535 1534 1536 1538 1536 1532 1531 1533 1535 1535 1539 1543 1543 1543 1545 1545 1546 1546 1544 1544 1544 1541 1542 1544 1543 1544 1545 1542 1537 1529 1522 1519 1514 1512 1513 1512 1508 1506 1504 1501 1500 1500 1500 1500 1500 1500
1493 1495 1496 1497 1498 1497 1498 1499 1498 1501 1503 1504 1506 1508 1510 1512 1513 1515 1515 1517 1514 1508 1506 1505 1505 1504 1505 1508 1509 1511 1513 1512 1512 1513 1515 1517 1519 1522 1524 1526 1529 1532 1534 1535 1538 1537 1532 1530 1532 1534 1535 1536 1538 1540 1541 1541 1543 1543 1541 1540 1539 1538 1540 1543 1545 1545 1543 1543 1545 1544 1537 1523 1517 1516 1512 1511 1512 1509 1504 1503 1500 1496 1495 1496 1495 1494 1494 1496
1491 1493 1494 1496 1496 1496 1497 1497 1498 1501 1501 1503 1506 1507 1510 1511 1514 1515 1515 1521 1517 1504 1502 1503 1502 1501 1501 1504 1506 1511 1515 1510 1508 1512 1513 1515 1517 1519 1523 1525 1526 1529 1532 1535 1538 1535 1531 1530 1531 1533 1535 1536 1537 1539 1539 1539 1542 1542 1537 1536 1538 1539 1541 1544 1545 1546 1545 1543 1545 1547 1541 1530 1520 1511 1508 1510 1510 1505 1502 1499 1496 1493 1492 1491 1491 1489 1490 1491
1489 1491 1492 1494 1495 1494 1495 1496 1499 1499 1500 1504 1504 1506 1509 1509 1514 1514 1516 1529 1518 1496 1496 1499 1498 1497 1497 1500 1502 1508 1512 1506 1505 1510 1511 1514 1517 1517 1520 1524 1526 1528 1529 1534 1536 1530 1527 1530 1532 1532 1533 1536 1537 1536 1536 1537 1540 1539 1537 1537 1538 1539 1542 1543 1545 1547 1547 1546 1546 1545 1544 1541 1528 1512 1508 1510 1507 1504 1501 1497 1493 1490 1488 1487 1487 1486 1487 1487
1487 1489 1490 1492 1493 1493 1494 1496 1498 1498 1501 1503 1503 1506 1507 1509 1515 1512 1520 1534 1511 1486 1490 1494 1494 1495 1496 1499 1501 1503 1505 1501 1503 1508 1509 1512 1515 1516 1518 1521 1522 1524 1525 1529 1529 1524 1523 1526 1528 1529 1531 1534 1533 1530 1531 1533 1535 1536 1538 1540 1539 1541 1542 1544 1546 1548 1552 1552 1544 1539 1545 1544 1526 1510 1510 1511 1507 1503 1497 1491 1488 1485 1485 1485 1484 1483 1483 1484
1485 1486 1488 1490 1491 1492 1493 1494 1495 1498 1501 1502 1503 1505 1506 1510 1513 1512 1529 1531 1498 1482 1489 1490 1492 1494 1495 1499 1501 1500 1502 1502 1503 1506 1508 1512 1514 1515 1517 1519 1521 1523 1524 1523 1522 1522 1523 1525 1525 1526 1528 1528 1528 1530 1531 1530 1531 1535 1540 1540 1541 1544 1545 1547 1547 1547 1554 1553 1537 1532 1540 1539 1520 1504 1505 1508 1505 1501 1493 1487 1483 1481 1483 1483 1482 1481 1481 1482
1483 1484 1485 1488 1489 1489 1490 1491 1493 1497 1499 1500 1502 1504 1505 1509 1510 1522 1538 1522 1490 1486 1490 1488 1491 1492 1493 1499 1502 1501 1501 1503 1504 1506 1510 1512 1513 1515 1516 1518 1521 1523 1525 1524 1523 1523 1524 1525 1525 1525 1524 1524 1526 1532 1533 1532 1532 1534 1537 1537 1540 1544 1545 1549 1550 1549 1553 1545 1529 1527 1532 1533 1525 1506 1498 1497 1494 1492 1487 1483 1480 1479 1481 1480 1480 1480 1480 1480
1481 1482 1483 1485 1485 1486 1487 1487 1491 1495 1497 1499 1501 1502 1505 1507 1511 1523 1527 1504 1487 1489 1489 1489 1491 1490 1490 1493 1497 1500 1502 1504 1504 1506 1509 1512 1514 1515 1516 1519 1522 1526 1529 1526 1523 1524 1524 1525 1524 1522 1522 1523 1526 1531 1534 1535 1535 1534 1534 1535 1539 1543 1545 1549 1551 1552 1552 1537 1527 1533 1535 1534 1527 1506 1494 1491 1488 1487 1485 1481 1479 1479 1480 1479 1479 1479 1479 1479
1479 1480 1481 1482 1483 1484 1485 1485 1489 1494 1496 1498 1501 1501 1503 1510 1514 1515 1507 1495 1491 1486 1482 1487 1489 1489 1490 1489 1492 1497 1499 1502 1503 1503 1506 1510 1513 1513 1511 1512 1515 1524 1528 1524 1523 1524 1523 1521 1522 1521 1521 1522 1523 1529 1536 1538 1537 1535 1534 1537 1543 1548 1550 1548 1550 1556 1552 1536 1533 1541 1537 1531 1519 1499 1492 1491 1485 1484 1483 1479 1478 1479 1478 1476 1477 1478 1478 1478
1477 1478 1479 1480 1480 1482 1483 1485 1489 1492 1494 1497 1502 1502 1504 1511 1509 1501 1495 1491 1486 1481 1480 1484 1486 1489 1492 1491 1494 1496 1498 1500 1502 1503 1503 1506 1511 1510 1509 1508 1509 1513 1516 1519 1524 1526 1522 1520 1520 1520 1519 1518 1517 1522 1530 1533 1536 1534 1532 1535 1540 1549 1553 1547 1550 1556 1547 1532 1536 1544 1537 1525 1510 1492 1486 1483 1477 1478 1478 1477 1477 1476 1475 1473 1475 1477 1476 1476
1474 1475 1477 1477 1478 1480 1481 1484 1486 1489 1492 1496 1500 1504 1509 1509 1497 1490 1490 1484 1479 1481 1483 1483 1487 1491 1492 1491 1493 1493 1496 1500 1501 1503 1505 1507 1511 1510 1508 1508 1508 1508 1511 1518 1522 1523 1522 1515 1511 1513 1512 1511 1511 1512 1515 1522 1530 1531 1528 1531 1532 1535 1537 1534 1535 1537 1532 1529 1536 1542 1532 1513 1496 1484 1479 1477 1475 1476 1475 1474 1475 1473 1471 1471 1471 1473 1473 1474
1472 1472 1474 1475 1476 1478 1479 1481 1483 1486 1489 1492 1497 1503 1506 1501 1490 1486 1485 1480 1478 1482 1484 1485 1487 1492 1493 1492 1493 1491 1491 1496 1500 1503 1505 1506 1506 1504 1502 1502 1504 1505 1508 1513 1514 1518 1521 1509 1502 1506 1506 1506 1508 1508 1510 1517 1527 1531 1530 1531 1528 1523 1521 1527 1536 1538 1538 1538 1534 1531 1519 1499 1487 1479 1476 1477 1475 1473 1472 1471 1473 1471 1468 1469 1468 1467 1469 1470
1469 1470 1471 1471 1472 1475 1478 1479 1480 1483 1485 1489 1496 1499 1492 1483 1478 1478 1475 1473 1476 1479 1484 1487 1487 1490 1493 1493 1494 1493 1490 1493 1499 1502 1503 1503 1500 1497 1496 1492 1494 1497 1497 1501 1506 1511 1515 1509 1505 1508 1506 1507 1508 1507 1510 1512 1517 1527 1531 1526 1523 1522 1519 1525 1539 1548 1550 1540 1522 1515 1506 1493 1488 1478 1470 1473 1472 1471 1472 1470 1470 1468 1466 1467 1465 1464 1466 1467
1467 1468 1467 1467 1470 1473 1476 1478 1478 1480 1483 1486 1490 1487 1480 1473 1470 1471 1470 1469 1473 1476 1480 1484 1483 1485 1490 1491 1493 1493 1492 1493 1498 1500 1500 1502 1497 1491 1490 1487 1485 1488 1486 1489 1496 1499 1502 1504 1507 1509 1508 1509 1510 1508 1511 1510 1511 1521 1525 1519 1520 1525 1523 1524 1532 1540 1549 1542 1519 1510 1504 1495 1492 1480 1468 1471 1471 1468 1469 1468 1467 1466 1465 1466 1463 1462 1464 1465
1465 1466 1464 1463 1467 1471 1474 1477 1478 1479 1481 1485 1485 1478 1473 1469 1464 1465 1468 1468 1470 1474 1477 1478 1477 1478 1483 1487 1488 1490 1491 1491 1496 1498 1496 1500 1492 1479 1482 1484 1482 1484 1482 1485 1492 1493 1496 1500 1506 1513 1512 1509 1510 1510 1512 1513 1512 1514 1514 1514 1516 1520 1522 1527 1530 1528 1534 1536 1518 1507 1506 1499 1491 1479 1467 1467 1465 1461 1462 1464 1465 1465 1463 1462 1460 1460 1462 1463
1464 1465 1461 1459 1464 1468 1472 1475 1476 1477 1478 1480 1482 1475 1468 1463 1460 1463 1467 1466 1468 1473 1475 1473 1472 1475 1478 1480 1481 1486 1488 1486 1491 1495 1491 1493 1486 1472 1473 1477 1477 1480 1482 1486 1490 1491 1494 1497 1503 1513 1513 1511 1512 1511 1510 1512 1514 1514 1513 1515 1515 1515 1516 1521 1524 1520 1520 1524 1516 1507 1500 1485 1474 1470 1463 1460 1459 1456 1458 1461 1462 1462 1459 1458 1458 1459 1461 1462
1464 1463 1458 1457 1462 1465 1469 1473 1474 1474 1473 1472 1473 1468 1463 1460 1461 1464 1465 1465 1465 1468 1469 1467 1468 1472 1473 1475 1477 1480 1482 1482 1486 1488 1483 1483 1480 1470 1468 1471 1473 1478 1481 1486 1489 1490 1494 1495 1499 1511 1516 1512 1508 1504 1501 1502 1506 1510 1512 1515 1514 1516 1518 1517 1520 1520 1515 1518 1522 1519 1501 1469 1456 1461 1456 1452 1455 1454 1455 1458 1459 1457 1455 1455 1457 1458 1459 1460
1463 1462 1456 1456 1460 1462 1466 1470 1469 1469 1467 1466 1464 1461 1460 1459 1460 1462 1463 1464 1465 1464 1464 1464 1465 1466 1467 1471 1473 1474 1478 1480 1483 1484 1480 1478 1474 1467 1463 1464 1469 1476 1482 1490 1490 1487 1491 1492 1496 1508 1512 1505 1498 1496 1496 1495 1496 1497 1499 1502 1501 1505 1512 1514 1518 1521 1518 1516 1517 1520 1503 1462 1445 1455 1451 1447 1452 1452 1453 1455 1455 1454 1452 1454 1456 1457 1458 1458
1460 1458 1454 1455 1458 1459 1463 1465 1464 1465 1464 1461 1458 1457 1458 1458 1458 1460 1461 1463 1465 1463 1463 1463 1462 1462 1462 1465 1467 1469 1474 1476 1479 1481 1477 1472 1468 1462 1459 1461 1464 1468 1474 1482 1481 1478 1482 1487 1492 1499 1499 1497 1495 1497 1499 1498 1496 1496 1495 1494 1493 1496 1500 1502 1508 1514 1517 1517 1513 1520 1509 1463 1440 1452 1451 1447 1452 1452 1452 1453 1452 1451 1450 1452 1455 1455 1456 1456
1456 1454 1453 1455 1456 1456 1459 1460 1460 1461 1459 1455 1453 1454 1456 1457 1457 1458 1459 1461 1463 1463 1463 1462 1460 1460 1460 1461 1464 1467 1470 1470 1472 1473 1469 1467 1463 1458 1459 1461 1463 1465 1469 1474 1476 1477 1482 1486 1489 1491 1492 1494 1496 1497 1498 1498 1498 1497 1496 1495 1495 1496 1494 1494 1498 1501 1507 1510 1509 1520 1513 1465 1441 1453 1453 1449 1453 1451 1451 1452 1450 1450 1449 1451 1453 1453 1454 1455
1453 1452 1452 1455 1456 1454 1454 1453 1454 1455 1454 1452 1452 1453 1455 1455 1454 1455 1456 1457 1458 1459 1460 1460 1458 1459 1459 1460 1461 1463 1465 1466 1466 1465 1463 1464 1460 1456 1458 1460 1461 1463 1463 1465 1468 1472 1480 1483 1485 1489 1493 1493 1495 1496 1495 1497 1499 1496 1494 1495 1494 1492 1495 1497 1498 1500 1502 1498 1496 1507 1498 1460 1445 1454 1452 1451 1453 1449 1450 1451 1449 1450 1448 1449 1451 1451 1453 1454
1451 1450 1450 1452 1454 1451 1447 1445 1446 1449 1449 1450 1450 1451 1453 1452 1451 1452 1453 1454 1455 1456 1457 1456 1456 1456 1458 1459 1459 1460 1460 1460 1460 1461 1462 1461 1458 1456 1457 1458 1460 1460 1457 1458 1459 1462 1470 1473 1476 1484 1490 1488 1484 1480 1478 1484 1496 1496 1492 1492 1491 1491 1494 1493 1495 1502 1498 1488 1489 1494 1477 1450 1447 1453 1450 1451 1453 1449 1447 1448 1448 1449 1447 1447 1449 1450 1451 1453
1450 1449 1447 1448 1449 1448 1444 1442 1443 1444 1445 1447 1448 1447 1449 1449 1447 1448 1451 1453 1454 1454 1454 1454 1454 1455 1457 1458 1458 1458 1458 1457 1456 1458 1460 1458 1455 1455 1455 1455 1457 1457 1456 1457 1458 1460 1464 1465 1465 1468 1471 1470 1464 1461 1465 1473 1485 1488 1484 1486 1489 1489 1490 1489 1493 1496 1487 1481 1487 1481 1463 1450 1448 1450 1450 1450 1451 1449 1446 1446 1447 1446 1445 1445 1447 1448 1449 1450
1448 1446 1444 1445 1445 1445 1443 1441 1441 1441 1441 1442 1442 1441 1443 1444 1444 1446 1448 1449 1450 1451 1452 1452 1453 1454 1454 1456 1457 1456 1455 1455 1455 1456 1457 1455 1453 1453 1454 1455 1455 1454 1455 1457 1457 1459 1462 1462 1461 1459 1458 1456 1451 1455 1464 1466 1468 1473 1475 1480 1484 1484 1487 1490 1487 1478 1473 1480 1479 1461 1457 1459 1447 1443 1449 1449 1448 1449 1446 1445 1444 1443 1444 1445 1445 1446 1447 1447
1445 1442 1441 1442 1441 1441 1440 1438 1438 1439 1439 1439 1438 1437 1438 1440 1441 1443 1445 1446 1447 1448 1450 1451 1451 1450 1449 1450 1453 1454 1454 1455 1456 1454 1453 1452 1452 1454 1454 1455 1454 1453 1455 1457 1457 1457 1459 1458 1457 1457 1456 1453 1448 1451 1460 1460 1458 1461 1465 1470 1475 1479 1484 1484 1477 1466 1464 1472 1463 1445 1452 1459 1442 1435 1444 1445 1443 1446 1444 1443 1442 1441 1443 1443 1442 1443 1444 1445
1441 1439 1439 1440 1439 1437 1436 1435 1436 1438 1438 1438 1437 1435 1434 1435 1435 1436 1439 1443 1444 1444 1445 1447 1445 1444 1446 1446 1448 1450 1451 1452 1453 1450 1448 1449 1450 1452 1452 1451 1451 1451 1453 1455 1455 1455 1456 1454 1453 1454 1455 1453 1448 1448 1454 1456 1455 1458 1460 1463 1466 1471 1474 1471 1464 1457 1456 1461 1455 1444 1449 1449 1434 1429 1436 1437 1439 1441 1441 1441 1440 1440 1441 1440 1440 1441 1441 1442
1437 1437 1437 1438 1438 1436 1435 1435 1436 1437 1436 1436 1436 1434 1433 1432 1431 1431 1433 1436 1439 1440 1440 1440 1438 1439 1443 1445 1445 1445 1443 1443 1443 1442 1442 1444 1446 1447 1447 1445 1446 1449 1452 1454 1453 1454 1455 1452 1449 1452 1456 1453 1447 1445 1450 1454 1454 1455 1459 1462 1463 1464 1463 1460 1454 1453 1458 1461 1454 1449 1452 1442 1424 1423 1431 1434 1435 1438 1438 1438 1438 1437 1438 1437 1437 1437 1437 1439
1434 1435 1436 1438 1437 1435 1434 1434 1435 1437 1436 1434 1434 1433 1433 1432 1430 1430 1428 1427 1430 1433 1434 1435 1435 1437 1440 1441 1441 1439 1436 1435 1435 1434 1436 1440 1441 1440 1441 1441 1441 1446 1450 1451 1450 1451 1454 1453 1450 1454 1458 1453 1445 1443 1448 1455 1458 1459 1460 1459 1456 1453 1451 1450 1450 1451 1453 1454 1452 1455 1456 1435 1415 1421 1431 1431 1432 1436 1436 1435 1435 1433 1433 1433 1433 1433 1434 1435
1431 1433 1434 1437 1436 1433 1432 1432 1433 1435 1432 1430 1431 1431 1430 1430 1430 1430 1429 1425 1424 1427 1428 1429 1431 1433 1435 1436 1435 1432 1429 1429 1431 1433 1435 1438 1438 1437 1439 1440 1439 1441 1445 1447 1447 1448 1450 1452 1453 1456 1457 1451 1443 1442 1448 1457 1462 1458 1449 1440 1436 1438 1441 1445 1448 1445 1441 1443 1447 1449 1440 1420 1413 1424 1430 1429 1431 1433 1430 1430 1430 1428 1428 1428 1428 1428 1430 1431